Location: Hokitika
(42.7170°S, 170.9670°E)
Time: 22:48:24
(UTC+13:00)

Cosmos 1151 Rocket - Pass Details

Date: 24 January 2019
Orbit: 591 x 617 km, 82.5° (Epoch: 20 February)

Event Time Altitude Azimuth Distance (km) Brightness Sun altitude
Rises 21:49:33 0° 4° (N) 2,827 6.1 -7.3°
Reaches altitude 10° 21:51:46 10° 8° (N) 1,936 5.2 -7.6°
Maximum altitude 21:55:57 56° 86° (E) 728 3.1 -8.3°
Drops below altitude 10° 22:00:14 10° 163° (SSE) 1,978 5.9 -8.9°
Sets 22:02:30 0° 167° (SSE) 2,894 6.8 -9.2°
